Overview Statistics Trail Chart Weather Telemetry Raw packets
 

This is the latest recevied weather packets stored in our database for station/object OM5ZU-10. If no packets are shown the sender has not sent any weather packets the latest 10 day(s).

<< 26 27 28 29 30 31 32 >>
Time Temp. Humidity Pressure Rain* Wind** Luminosity Snow
1787955664 25° C 37% 1010.7 hPa - - - -
1787954764 25° C 37% 1011.3 hPa - - - -
1787953864 25° C 37% 1011.3 hPa - - - -
1787952964 25° C 37% 1011.6 hPa - - - -
1787952064 25° C 37% 1011.9 hPa - - - -
1787951163 24.44° C 38% 1012.1 hPa - - - -
1787950263 24.44° C 38% 1011.9 hPa - - - -
1787949363 24.44° C 38% 1012 hPa - - - -
1787948463 25° C 39% 1012 hPa - - - -
1787947563 25° C 39% 1011.9 hPa - - - -
1787946663 25° C 40% 1011.9 hPa - - - -
1787945762 25° C 41% 1012.3 hPa - - - -
1787944862 25.56° C 40% 1012.1 hPa - - - -
1787943970 25.56° C 39% 1012.3 hPa - - - -
1787943062 26.11° C 39% 1012.3 hPa - - - -
1787942162 26.11° C 38% 1012.5 hPa - - - -
1787941262 26.11° C 40% 1012.4 hPa - - - -
1787940361 26.11° C 41% 1012.4 hPa - - - -
1787939461 26.11° C 42% 1012.3 hPa - - - -
1787939171 26.11° C 42% 1012.3 hPa - - - -
1787938271 26.67° C 40% 1012.3 hPa - - - -
1787937876 27.22° C 39% 1012.3 hPa - - - -
1787936976 27.78° C 39% 1012.5 hPa - - - -
1787936669 27.78° C 40% 1012.3 hPa - - - -
1787935769 27.78° C 39% 1012.7 hPa - - - -

* Rain since midnight (hover to see other rain measurements)
** Current wind speed in m/s (hover to see current wind gust speed)